"Pseudo-MPEC" for C1AUGE1 = ZTF0Edd = 'Multijunk'

Created 2020 Oct 22 12:59:06 UT using Find_Orb

Click here for an explanation of pseudo-MPECs

TLEs are available for this object, and for some of the other objects on these pages. Because it is an ETBO, the predictions are going to be somewhat poor.

This was picked up five times before it was recognized as an artsat. CSS finally got it as C1AUGE1 and stayed on it a while. It helped that we also had data from (H01) Magdalena Ridge, for parallax. That got us a decent orbit, one which was both unambiguously an artsat and one that could be linked to observations of ZTF0Edd made four nights earlier from ZTF. That, in turn, got us linkages to three previous objects from NEOCP.

The orbital elements are similar to those that would be expected of 'Multijunk', the ETBO in a 2.3-day orbit that has been observed, off and on, since 2017. The similarity is a little rough, because the last previous observations were from April 25. (Actually, that page needs to be updated to include said observations...)

 
 Astrometry: 
     ZTF0EJr* C2020 08 27.35085723 02 12.23 -12 26 53.2    ~8RECx18.30gUNEOCPI41
     ZTF0EJr  C2020 08 27.35120423 02 13.77 -12 26 41.5    ~8RECx18.30gUNEOCPI41
     ZTF0EJr  C2020 08 27.35763923 02 44.01 -12 23 03.3    ~8RECx17.96RUNEOCPI41
     ZTF0EJr  C2020 08 27.35798623 02 45.62 -12 22 51.1    ~8RECx17.96RUNEOCPI41
     JNS051 * C2020 09 14AK\;G35ATUihAstrometryRu]8xLlosWMZniYredacted;(khug9Q66
     JNS051   C2020 09 142(:E=\Ss%AK%cR+0G$AN^j=rrc:HPS4click2mYP)fIc-NcfkqU=Q66
     JNS051   C2020 09 14uwF4gc`9;0SOCbM^NP!6$oZt%RIx]C;w6Bw,,*5O_xVw,xpdMZQGQ66
     JNS051   C2020 09 149]J;[here.8v_(r]forhYA$bV?explanationW6K/-6ZJW[c:+XOQ66
     C36XRC2* C2020 09 15.36262 00 43 13.14 -04 38 21.7    ~9FE4x18.0 GVNEOCPG96
     C36XRC2  C2020 09 15.36772 00 43 35.59 -04 35 09.9    ~9FE4x17.9 GVNEOCPG96
     C36XRC2  C2020 09 15.37281 00 43 58.11 -04 31 59.5    ~9FE4x18.0 GVNEOCPG96
     C36XRC2  C2020 09 15.41761 00 47 24.36 -04 02 50.9    ~9FE4x17.6 GVNEOCPI52
     C36XRC2  C2020 09 15.41801 00 47 26.26 -04 02 35.4    ~9FE4x17.7 GVNEOCPI52
     C36XRC2  C2020 09 15.41840 00 47 28.17 -04 02 19.8    ~9FE4x17.7 GVNEOCPI52
     C36XRC2  C2020 09 15.41879 00 47 30.05 -04 02 03.9    ~9FE4x17.6 GVNEOCPI52
     ZTF0Edd* C2020 09 20.38741901 53 57.96 +00 44 30.8    ~9KEwx17.85RUNEOCPI41
     ZTF0Edd  C2020 09 20.38776601 54 00.72 +00 44 49.1    ~9KEwx17.85RUNEOCPI41
     ZTF0Edd  C2020 09 20.38788201 54 01.64 +00 44 57.9    ~9KEwx17.70RUNEOCPI41
     ZTF0Edd  C2020 09 20.38822901 54 04.37 +00 45 16.0    ~9KEwx17.70RUNEOCPI41
     C1AUGE1* C2020 09 24.26481800 22 03.27 -06 30 05.3    .50   17.76GVNEOCP703
     C1AUGE1  C2020 09 24.27531200 22 41.38 -06 24 18.4    .50   18.29GVNEOCP703
     C1AUGE1  C2020 09 24.28055800 23 00.00 -06 21 24.9    .50         VNEOCP703
     C1AUGE1  C2020 09 24.29906500 24 05.89 -06 11 06.9    .50   17.44GVNEOCPI52
     C1AUGE1  C2020 09 24.29919500 24 06.33 -06 11 02.5    .50   17.44GVNEOCPI52
     C1AUGE1  C2020 09 24.29932500 24 06.81 -06 10 58.2    .50   17.67GVNEOCPI52
     C1AUGE1  C2020 09 24.29945400 24 07.23 -06 10 53.6    .50   17.63GVNEOCPI52
     C1AUGE1  C2020 09 24.31145600 24 12.54 -06 07 41.3    .50   17.9 GVNEOCPH01
     C1AUGE1  C2020 09 24.31817500 24 36.28 -06 03 49.3    .50   17.7 GVNEOCPH01
     C1AUGE1  C2020 09 24.32631800 25 05.11 -05 59 06.9    .50   17.7 GVNEOCPH01
     C1AUGE1  C2020 09 24.32911100 25 50.08 -05 54 00.0    .50   17.41GVNEOCPI52
     C1AUGE1  C2020 09 24.32924100 25 50.52 -05 53 55.6    .50   17.53GVNEOCPI52
     C1AUGE1  C2020 09 24.32937200 25 50.97 -05 53 51.1    .50   17.45GVNEOCPI52
     C1AUGE1  C2020 09 24.32950300 25 51.42 -05 53 46.6    .50   17.65GVNEOCPI52
     C1AUGE1  C2020 09 24.33253100 25 27.20 -05 55 30.5    .50   17.6 GVNEOCPH01
     C1AUGE1  C2020 09 24.42893 00 32 02.84 -04 54 57.8    .50   17.3 GV     I52
     C1AUGE1  C2020 09 24.42906 00 32 03.40 -04 54 53.2    .50   17.7 GV     I52
     C1AUGE1  C2020 09 24.42919 00 32 03.93 -04 54 48.6    .50   17.5 GV     I52
     C1AUGE1  C2020 09 24.42932 00 32 04.50 -04 54 43.5    .50   17.6 GV     I52
     C3EPVY2  C2020 10 08.30428 01 03 33.40 -02 42 50.8    .50         V     G96
     C3EPVY2  C2020 10 08.30938 01 03 49.32 -02 39 49.6    .50   18.4 GV     G96
     C3EPVY2  C2020 10 08.31449 01 04 05.25 -02 36 49.5    .50   17.9 GV     G96
     C3EPVY2  C2020 10 08.31959 01 04 21.03 -02 33 50.9    .50   18.1 GV     G96
     C1EY021  C2020 10 15.27422 01 20 47.02 -01 16 59.4    .50         V     703
     C1EY021  C2020 10 15.27940 01 21 02.39 -01 13 58.0    .50   17.7 GV     703
     C1EY021  C2020 10 15.28459 01 21 17.83 -01 10 54.0    .50   17.9 GV     703
     C1EY021  C2020 10 15.28977 01 21 33.10 -01 07 52.0    .50   17.7 GV     703
     ZTF0Fb9* C2020 10 17.21127300 43 03.61 -05 20 29.3    ~AHFH 17.77gUNEOCPI41
     ZTF0Fb9  C2020 10 17.21162000 43 05.30 -05 20 11.9    ~AHFH 17.77gUNEOCPI41
     ZTF0Fb9  C2020 10 17.26903900 47 31.50 -04 33 27.9    ~AHFH 17.39RUNEOCPI41
     ZTF0Fb9  C2020 10 17.26938700 47 32.86 -04 33 11.4    ~AHFH 17.39RUNEOCPI41
     ZTF0Fb9  C2020 10 17.26951400 47 33.44 -04 33 05.9    ~AHFH 17.32RUNEOCPI41
     ZTF0Fb9  C2020 10 17.26986100 47 34.93 -04 32 49.1    ~AHFH 17.32RUNEOCPI41
     C1FZWF1  C2020 10 22.19947 01 35 24.55 -00 18 55.6    .50   17.6 GV     703
     C1FZWF1  C2020 10 22.20551 01 35 45.85 -00 15 08.3    .50   17.8 GV     703
     C1FZWF1  C2020 10 22.21154 01 36 06.69 -00 11 20.5    .50   17.8 GV     703
     C1FZWF1  C2020 10 22.21757 01 36 26.67 -00 07 37.2    .50   18.7 GV     703

Station data:
(703) Catalina Sky Survey  (N32.417006 W110.732640)  US/Arizona.  Observers
   D. C. Fuls, G. J. Leonard. Measurers E. J. Christensen, G. A. Farneth, D.
   C. Fuls, A. R. Gibbs, A. D. Grauer, H. Gröller, R. A. Kowalski, S. M.
   Larson, G. J. Leonard, T. A. Pruyne, D. Rankin, R. L. Seaman, F. C.
   Shelly, K. W. Wierzchoś. 0.68-m Schmidt + 10K CCD.
(G96) Mt. Lemmon Survey  (N32.442754 W110.788720)  US/Arizona.  Observer D.
   C. Fuls. Measurers E. J. Christensen, G. A. Farneth, D. C. Fuls, A. R.
   Gibbs, A. D. Grauer, H. Gröller, R. A. Kowalski, S. M. Larson, G. J.
   Leonard, T. A. Pruyne, D. Rankin, R. L. Seaman, F. C. Shelly, K. W.
   Wierzchoś. 1.5-m reflector + 10K CCD.
(H01) Magdalena Ridge Observatory, Socorro  (N33.984833 W107.189333)  US/New
   Mexico.  Observers W. H. Ryan, E. V. Ryan. Measurer W. H. Ryan. 2.4-m
   f/8.9 reflector + CCD.
(I41) Palomar Mountain--ZTF  (N33.357340 W116.859780)  US/California. 1.2-m
   f/2.44 Oschin Schmidt + CCD.
(I52) Steward Observatory, Mt. Lemmon Station  (N32.442547 W110.788920)
   US/Arizona.  Observer D. Rankin. Measurers E. J. Christensen, G. A.
   Farneth, D. C. Fuls, A. R. Gibbs, A. D. Grauer, H. Gröller, R. A.
   Kowalski, S. M. Larson, G. J. Leonard, T. A. Pruyne, D. Rankin, R. L.
   Seaman, F. C. Shelly, K. W. Wierzchoś. 1.0-m reflector + CCD.
(Q66) Siding Spring-Janess-G, JAXA  (S31.273299 E149.064250)  Australia/NSW.

Orbital elements:  C1AUGE1 = ZTF0Edd = 'Multijunk'
   Perigee 2020 Oct 16.5989667 +/- 0.00146124 TT = 14:22:30.71 (JD 2459139.0989667)
A1: 1.538e-5 +/- 1.04494e-7   A2: -7.90791e-7 +/- 2.7514e-8
A3: -1.34895e-6 +/- 1.54571e-8 AU/day^2 [1/r^2]
Epoch 2020 Oct 17.0 TT = JDT 2459139.5                        Find_Orb
M  62.7362783318 +/- 0.22868        (J2000 equator)
n 156.4365635625 +/- 0.0123956      Peri.  186.2884402 +/- 0.038603
a 73628.281039 +/- 3.88977          Node    19.2357144 +/- 0.058450
e   0.815337441 +/- 0.000311858     Incl.   19.3284500 +/- 0.0030106
P3313.74m/2.301d           H 32.8   G  0.15   U  9.8
q 13596.386727 +/- 23.0062    Q 133660.17535 +/- 23.7186
37 of 56 observations 2020 Sept. 24-Oct. 22; mean residual 11".848
Residuals in arcseconds: 
200827 I41( 221+  198+)   200924 703 12.7+ 16.7+    201008 G96 5.47+ 4.41-
200827 I41( 219+  198+)   200924 703 8.74+ 12.6+    201008 G96 8.49+ 1.38-
200827 I41( 207+  192+)   200924 703 4.27+ 9.64+    201008 G96 11.2+ .196+
200827 I41( 206+  192+)   200924 I52 .934- 3.26+    201008 G96 12.0+ .625+
200914 Q66(1367+  364+)   200924 I52 1.19- 3.22+    201015 703 12.3+ 7.45+
200914 Q66(1362+  361+)   200924 I52 .841- 3.07+    201015 703 11.5+ 5.99+
200914 Q66(1202+  321+)   200924 I52 1.34- 3.27+    201015 703 12.5+ 7.02+
200914 Q66(1199+  321+)   200924 H01 3.93- .558-    201015 703 12.5+ 6.64+
200915 G96( 133+ 61.2-)   200924 H01 6.15- 2.83-    201017 I41 6.00+ 7.74+
200915 G96( 141+ 60.1-)   200924 H01 8.80- 5.61-    201017 I41 5.07+ 7.77+
200915 G96( 149+ 61.1-)   200924 I52 10.8- 7.00-    201017 I41 .717+ 1.49+
200915 I52( 219+ 45.8-)   200924 I52 11.0- 7.13-    201017 I41 1.45- 1.34+
200915 I52( 219+ 46.2-)   200924 I52 11.1- 7.19-    201017 I41 0.99- .770+
200915 I52( 220+ 46.0-)   200924 I52 11.2- 7.26-    201017 I41 1.13- .976+
200915 I52( 220+ 45.6-)   200924 H01 10.7- 7.70-    201022 703 14.9- 3.22-
200920 I41(1801+  294+)   200924 I52 27.1- 30.3-    201022 703 11.3- 2.29-
200920 I41(1803+  294+)   200924 I52 26.9- 30.5-    201022 703 7.55- .069+
200920 I41(1804+  297+)   200924 I52 27.2- 30.6-    201022 703 10.5- 1.51-
200920 I41(1805+  297+)   200924 I52 26.9- 30.2-

